Time,TemperatureF,DewpointF,PressureIn,WindDirection,WindDirectionDegrees,WindSpeedMPH,WindSpeedGustMPH,Humidity,HourlyPrecipIn,Conditions,Clouds,dailyrainin,SoftwareType,DateUTC
2013-05-19 00:05:00,66.0,66.0,29.99,East,90,0.0,0.0,100,0.00,,,0.00,Weather View 32 v70,2013-05-19 04:05:00,
2013-05-19 00:10:00,66.0,66.0,29.99,East,90,0.0,0.0,100,0.00,,,0.00,Weather View 32 v70,2013-05-19 04:10:00,
2013-05-19 00:15:00,66.0,66.0,29.99,East,90,0.0,0.0,100,0.00,,,0.00,Weather View 32 v70,2013-05-19 04:15:00,
2013-05-19 00:25:00,66.0,66.0,29.99,East,90,0.0,0.0,100,0.00,,,0.00,Weather View 32 v70,2013-05-19 04:25:00,
2013-05-19 00:30:00,66.0,66.0,29.99,East,90,0.0,0.0,100,0.00,,,0.00,Weather View 32 v70,2013-05-19 04:30:00,
2013-05-19 00:35:00,66.0,66.0,29.99,East,90,0.0,0.0,100,0.00,,,0.00,Weather View 32 v70,2013-05-19 04:35:00,
2013-05-19 00:41:00,66.0,66.0,29.99,East,90,0.0,0.0,100,0.00,,,0.00,Weather View 32 v70,2013-05-19 04:41:00,
2013-05-19 00:50:00,65.0,65.0,29.99,East,90,0.0,0.0,100,0.00,,,0.00,Weather View 32 v70,2013-05-19 04:50:00,
2013-05-19 00:55:00,65.0,65.0,29.99,East,90,0.0,0.0,100,0.00,,,0.00,Weather View 32 v70,2013-05-19 04:55:00,
2013-05-19 01:05:00,65.0,65.0,29.99,East,90,0.0,0.0,100,0.00,,,0.00,Weather View 32 v70,2013-05-19 05:05:00,
2013-05-19 01:15:00,65.0,65.0,29.98,East,90,0.0,0.0,100,0.00,,,0.00,Weather View 32 v70,2013-05-19 05:15:00,
2013-05-19 01:25:00,65.0,65.0,29.98,East,90,0.0,0.0,100,0.00,,,0.00,Weather View 32 v70,2013-05-19 05:25:00,
2013-05-19 01:35:00,65.0,65.0,29.98,East,90,0.0,0.0,100,0.00,,,0.00,Weather View 32 v70,2013-05-19 05:35:00,
2013-05-19 01:40:00,65.0,65.0,29.98,East,90,0.0,0.0,100,0.00,,,0.00,Weather View 32 v70,2013-05-19 05:40:00,
2013-05-19 01:50:00,65.0,65.0,29.98,East,90,0.0,0.0,100,0.00,,,0.00,Weather View 32 v70,2013-05-19 05:50:00,
2013-05-19 01:55:00,65.0,65.0,29.98,East,90,0.0,0.0,100,0.00,,,0.00,Weather View 32 v70,2013-05-19 05:55:00,
2013-05-19 02:00:00,65.0,65.0,29.97,East,90,0.0,0.0,100,0.00,,,0.00,Weather View 32 v70,2013-05-19 06:00:00,
2013-05-19 02:10:00,65.0,65.0,29.96,East,90,0.0,0.0,100,0.00,,,0.00,Weather View 32 v70,2013-05-19 06:10:00,
2013-05-19 02:20:00,64.0,64.0,29.97,East,90,0.0,0.0,100,0.00,,,0.00,Weather View 32 v70,2013-05-19 06:20:00,
2013-05-19 02:30:00,65.0,65.0,29.96,East,90,0.0,0.0,100,0.00,,,0.00,Weather View 32 v70,2013-05-19 06:30:00,
2013-05-19 02:40:00,65.0,65.0,29.96,East,90,0.0,0.0,100,0.00,,,0.00,Weather View 32 v70,2013-05-19 06:40:00,
2013-05-19 02:50:00,65.0,65.0,29.96,East,90,0.0,0.0,100,0.00,,,0.00,Weather View 32 v70,2013-05-19 06:50:00,
2013-05-19 03:00:00,65.0,65.0,29.96,East,90,0.0,0.0,100,0.00,,,0.00,Weather View 32 v70,2013-05-19 07:00:00,
2013-05-19 03:10:00,65.0,65.0,29.97,East,90,0.0,0.0,100,0.00,,,0.00,Weather View 32 v70,2013-05-19 07:10:00,
2013-05-19 03:20:00,65.0,65.0,29.97,East,90,0.0,0.0,100,0.00,,,0.00,Weather View 32 v70,2013-05-19 07:20:00,
2013-05-19 03:25:00,65.0,65.0,29.97,East,90,0.0,0.0,100,0.00,,,0.00,Weather View 32 v70,2013-05-19 07:25:00,
2013-05-19 03:35:00,64.0,64.0,29.97,East,90,0.0,0.0,100,0.00,,,0.00,Weather View 32 v70,2013-05-19 07:35:00,
2013-05-19 03:43:00,64.0,64.0,29.97,East,90,0.0,0.0,100,0.00,,,0.00,Weather View 32 v70,2013-05-19 07:43:00,
2013-05-19 03:50:00,64.0,64.0,29.97,East,90,0.0,0.0,100,0.00,,,0.00,Weather View 32 v70,2013-05-19 07:50:00,
2013-05-19 03:55:00,64.0,64.0,29.97,East,90,0.0,0.0,100,0.00,,,0.00,Weather View 32 v70,2013-05-19 07:55:00,
2013-05-19 04:05:00,64.0,64.0,29.97,East,90,0.0,0.0,100,0.00,,,0.00,Weather View 32 v70,2013-05-19 08:05:00,
2013-05-19 04:15:00,64.0,64.0,29.97,East,90,0.0,0.0,100,0.00,,,0.00,Weather View 32 v70,2013-05-19 08:15:00,
2013-05-19 04:25:00,64.0,64.0,29.97,East,90,0.0,0.0,100,0.00,,,0.00,Weather View 32 v70,2013-05-19 08:25:00,
2013-05-19 04:30:00,64.0,64.0,29.98,East,90,0.0,0.0,100,0.00,,,0.00,Weather View 32 v70,2013-05-19 08:30:00,
2013-05-19 04:40:00,64.0,64.0,29.98,East,90,0.0,0.0,100,0.00,,,0.00,Weather View 32 v70,2013-05-19 08:40:00,
2013-05-19 04:50:00,64.0,64.0,29.98,East,90,0.0,0.0,100,0.00,,,0.00,Weather View 32 v70,2013-05-19 08:50:00,
2013-05-19 04:55:00,64.0,64.0,29.98,East,90,0.0,0.0,100,0.00,,,0.00,Weather View 32 v70,2013-05-19 08:55:00,
2013-05-19 05:05:00,64.0,64.0,29.98,East,90,0.0,0.0,100,0.00,,,0.00,Weather View 32 v70,2013-05-19 09:05:00,
2013-05-19 05:15:00,63.0,63.0,30.00,SSE,157,0.0,0.0,100,0.00,,,0.00,Weather View 32 v70,2013-05-19 09:15:00,
2013-05-19 05:20:00,63.0,63.0,29.99,South,180,0.0,0.0,100,0.00,,,0.00,Weather View 32 v70,2013-05-19 09:20:00,
2013-05-19 05:30:00,63.0,63.0,30.00,SSW,202,0.0,0.0,100,0.00,,,0.00,Weather View 32 v70,2013-05-19 09:30:00,
2013-05-19 05:35:00,63.0,63.0,30.00,South,180,0.0,0.0,100,0.00,,,0.00,Weather View 32 v70,2013-05-19 09:35:00,
2013-05-19 05:44:00,64.0,64.0,29.99,South,180,0.0,0.0,100,0.00,,,0.00,Weather View 32 v70,2013-05-19 09:44:00,
2013-05-19 05:50:00,64.0,64.0,29.99,South,180,0.0,0.0,100,0.00,,,0.00,Weather View 32 v70,2013-05-19 09:50:00,
2013-05-19 05:55:00,64.0,64.0,29.99,South,180,0.0,0.0,100,0.00,,,0.00,Weather View 32 v70,2013-05-19 09:55:00,
2013-05-19 06:05:00,64.0,64.0,29.98,South,180,0.0,0.0,100,0.00,,,0.00,Weather View 32 v70,2013-05-19 10:05:00,
2013-05-19 06:15:00,64.0,64.0,29.98,South,180,0.0,0.0,100,0.00,,,0.00,Weather View 32 v70,2013-05-19 10:15:00,
2013-05-19 06:25:00,64.0,64.0,29.98,South,180,4.0,6.0,100,0.00,,,0.00,Weather View 32 v70,2013-05-19 10:25:00,
2013-05-19 06:35:00,64.0,64.0,29.98,South,180,3.0,6.0,100,0.00,,,0.00,Weather View 32 v70,2013-05-19 10:35:00,
2013-05-19 06:44:00,64.0,64.0,29.99,South,180,0.0,6.0,100,0.00,,,0.00,Weather View 32 v70,2013-05-19 10:44:00,
2013-05-19 06:50:00,64.0,64.0,29.99,South,180,0.0,6.0,100,0.00,,,0.00,Weather View 32 v70,2013-05-19 10:50:00,
2013-05-19 06:55:00,64.0,64.0,29.99,SSE,157,0.0,6.0,100,0.00,,,0.00,Weather View 32 v70,2013-05-19 10:55:00,
2013-05-19 07:05:00,64.0,64.0,29.99,SSW,202,0.0,6.0,100,0.01,,,0.01,Weather View 32 v70,2013-05-19 11:05:00,
2013-05-19 07:15:00,64.0,64.0,29.98,SSE,157,0.0,6.0,100,0.01,,,0.01,Weather View 32 v70,2013-05-19 11:15:00,
2013-05-19 07:25:00,64.0,64.0,29.99,SSE,157,4.0,6.0,100,0.01,,,0.01,Weather View 32 v70,2013-05-19 11:25:00,
2013-05-19 07:35:00,64.0,64.0,29.99,SE,135,2.0,6.0,100,0.01,,,0.01,Weather View 32 v70,2013-05-19 11:35:00,
2013-05-19 07:40:00,64.0,64.0,30.00,SSW,202,0.0,6.0,100,0.01,,,0.01,Weather View 32 v70,2013-05-19 11:40:00,
2013-05-19 07:45:00,64.0,64.0,30.00,SE,135,2.0,6.0,100,0.01,,,0.01,Weather View 32 v70,2013-05-19 11:45:00,
2013-05-19 07:55:00,65.0,65.0,30.00,South,180,3.0,6.0,100,0.01,,,0.01,Weather View 32 v70,2013-05-19 11:55:00,
2013-05-19 08:00:00,65.0,65.0,30.00,SSW,202,2.0,7.0,100,0.01,,,0.01,Weather View 32 v70,2013-05-19 12:00:00,
2013-05-19 08:05:00,65.0,65.0,30.00,SSE,157,6.0,7.0,100,0.00,,,0.01,Weather View 32 v70,2013-05-19 12:05:00,
2013-05-19 08:10:00,65.0,65.0,30.00,ESE,112,0.0,7.0,100,0.00,,,0.01,Weather View 32 v70,2013-05-19 12:10:00,
2013-05-19 08:20:00,65.0,65.0,30.01,SE,135,0.0,7.0,100,0.00,,,0.01,Weather View 32 v70,2013-05-19 12:20:00,
2013-05-19 08:30:00,65.0,65.0,30.01,SE,135,1.0,7.0,100,0.00,,,0.01,Weather View 32 v70,2013-05-19 12:30:00,
2013-05-19 08:40:00,65.0,65.0,30.01,SSW,202,4.0,7.0,100,0.00,,,0.01,Weather View 32 v70,2013-05-19 12:40:00,
2013-05-19 08:46:00,66.0,66.0,30.01,South,180,0.0,7.0,100,0.00,,,0.01,Weather View 32 v70,2013-05-19 12:46:00,
2013-05-19 08:55:00,66.0,66.0,30.01,SE,135,0.0,7.0,100,0.00,,,0.01,Weather View 32 v70,2013-05-19 12:55:00,
2013-05-19 09:05:00,66.0,66.0,30.00,SE,135,0.0,6.0,100,0.00,,,0.01,Weather View 32 v70,2013-05-19 13:05:00,
2013-05-19 09:15:00,66.0,66.0,30.00,South,180,4.0,6.0,100,0.00,,,0.01,Weather View 32 v70,2013-05-19 13:15:00,
2013-05-19 09:25:00,66.0,66.0,30.00,SSW,202,3.0,6.0,100,0.00,,,0.01,Weather View 32 v70,2013-05-19 13:25:00,
2013-05-19 09:35:00,66.0,66.0,30.01,SE,135,4.0,6.0,100,0.00,,,0.01,Weather View 32 v70,2013-05-19 13:35:00,
2013-05-19 09:45:00,67.0,67.0,30.00,SSW,202,3.0,7.0,100,0.00,,,0.01,Weather View 32 v70,2013-05-19 13:45:00,
2013-05-19 09:55:00,67.0,67.0,30.01,SW,225,7.0,8.0,100,0.00,,,0.01,Weather View 32 v70,2013-05-19 13:55:00,
2013-05-19 10:00:00,67.0,67.0,30.00,SW,225,0.0,8.0,100,0.00,,,0.01,Weather View 32 v70,2013-05-19 14:00:00,
2013-05-19 10:10:00,68.0,68.0,30.01,SW,225,3.0,8.0,100,0.00,,,0.01,Weather View 32 v70,2013-05-19 14:10:00,
2013-05-19 10:20:00,69.0,69.0,30.01,SW,225,2.0,8.0,100,0.00,,,0.01,Weather View 32 v70,2013-05-19 14:20:00,
2013-05-19 10:30:00,69.0,69.0,30.00,SW,225,0.0,8.0,100,0.00,,,0.01,Weather View 32 v70,2013-05-19 14:30:00,
2013-05-19 10:40:00,70.0,70.0,30.00,SW,225,0.0,8.0,100,0.00,,,0.01,Weather View 32 v70,2013-05-19 14:40:00,
2013-05-19 10:47:00,71.0,71.0,30.00,SW,225,4.0,8.0,100,0.00,,,0.01,Weather View 32 v70,2013-05-19 14:47:00,
2013-05-19 10:55:00,72.0,72.0,30.00,SW,225,0.0,7.0,100,0.00,,,0.01,Weather View 32 v70,2013-05-19 14:55:00,
2013-05-19 11:05:00,73.0,73.0,29.99,East,90,0.0,7.0,100,0.00,,,0.01,Weather View 32 v70,2013-05-19 15:05:00,
2013-05-19 11:15:00,74.0,74.0,29.98,East,90,0.0,7.0,100,0.00,,,0.01,Weather View 32 v70,2013-05-19 15:15:00,
2013-05-19 11:25:00,75.0,75.0,29.97,North,360,0.0,7.0,100,0.00,,,0.01,Weather View 32 v70,2013-05-19 15:25:00,
2013-05-19 11:35:00,75.0,75.0,29.97,East,90,0.0,7.0,100,0.00,,,0.01,Weather View 32 v70,2013-05-19 15:35:00,
2013-05-19 11:45:00,77.0,76.4,29.96,North,360,0.0,7.0,98,0.00,,,0.01,Weather View 32 v70,2013-05-19 15:45:00,
2013-05-19 11:55:00,77.0,77.0,29.96,North,360,0.0,6.0,100,0.00,,,0.01,Weather View 32 v70,2013-05-19 15:55:00,
2013-05-19 12:05:00,78.0,75.5,29.96,East,90,0.0,6.0,92,0.00,,,0.01,Weather View 32 v70,2013-05-19 16:05:00,
2013-05-19 12:15:00,79.0,76.8,29.96,NNE,22,0.0,6.0,93,0.00,,,0.01,Weather View 32 v70,2013-05-19 16:15:00,
2013-05-19 12:25:00,79.0,77.4,29.95,NNE,22,5.0,7.0,95,0.00,,,0.01,Weather View 32 v70,2013-05-19 16:25:00,
2013-05-19 12:35:00,79.0,74.8,29.96,NNE,22,0.0,7.0,87,0.00,,,0.01,Weather View 32 v70,2013-05-19 16:35:00,
2013-05-19 12:45:00,80.0,73.6,29.95,NNE,22,3.0,8.0,81,0.00,,,0.01,Weather View 32 v70,2013-05-19 16:45:00,
2013-05-19 12:50:00,80.0,73.6,29.94,NNE,22,0.0,8.0,81,0.00,,,0.01,Weather View 32 v70,2013-05-19 16:50:00,
2013-05-19 13:00:00,81.0,72.7,29.94,North,360,0.0,8.0,76,0.00,,,0.01,Weather View 32 v70,2013-05-19 17:00:00,
2013-05-19 13:10:00,82.0,74.4,29.93,NNE,22,4.0,8.0,78,0.00,,,0.01,Weather View 32 v70,2013-05-19 17:10:00,
2013-05-19 13:20:00,82.0,72.4,29.92,East,90,0.0,8.0,73,0.00,,,0.01,Weather View 32 v70,2013-05-19 17:20:00,
2013-05-19 13:30:00,83.0,73.0,29.92,NNE,22,5.0,8.0,72,0.00,,,0.01,Weather View 32 v70,2013-05-19 17:30:00,
2013-05-19 13:40:00,82.0,72.0,29.92,North,360,0.0,8.0,72,0.00,,,0.01,Weather View 32 v70,2013-05-19 17:40:00,
2013-05-19 13:48:00,82.0,72.0,29.92,North,360,4.0,6.0,72,0.00,,,0.01,Weather View 32 v70,2013-05-19 17:48:00,
2013-05-19 13:55:00,81.0,71.1,29.92,North,360,5.0,6.0,72,0.00,,,0.01,Weather View 32 v70,2013-05-19 17:55:00,
2013-05-19 14:00:00,80.0,69.7,29.92,North,360,0.0,7.0,71,0.00,,,0.01,Weather View 32 v70,2013-05-19 18:00:00,
2013-05-19 14:10:00,81.0,71.1,29.91,North,360,0.0,7.0,72,0.00,,,0.01,Weather View 32 v70,2013-05-19 18:10:00,
2013-05-19 14:20:00,80.0,70.9,29.91,North,360,4.0,7.0,74,0.00,,,0.01,Weather View 32 v70,2013-05-19 18:20:00,
2013-05-19 14:30:00,80.0,71.7,29.92,NNW,337,0.0,7.0,76,0.00,,,0.01,Weather View 32 v70,2013-05-19 18:30:00,
2013-05-19 14:40:00,83.0,70.9,29.91,North,360,4.0,7.0,67,0.00,,,0.01,Weather View 32 v70,2013-05-19 18:40:00,
2013-05-19 14:49:00,82.0,69.9,29.91,North,360,0.0,7.0,67,0.00,,,0.01,Weather View 32 v70,2013-05-19 18:49:00,
2013-05-19 14:55:00,81.0,70.7,29.90,NW,315,0.0,8.0,71,0.00,,,0.01,Weather View 32 v70,2013-05-19 18:55:00,
2013-05-19 15:05:00,83.0,71.3,29.90,NW,315,3.0,8.0,68,0.00,,,0.01,Weather View 32 v70,2013-05-19 19:05:00,
2013-05-19 15:15:00,81.0,69.8,29.90,NW,315,0.0,9.0,69,0.00,,,0.01,Weather View 32 v70,2013-05-19 19:15:00,
2013-05-19 15:25:00,80.0,70.1,29.90,NW,315,5.0,9.0,72,0.00,,,0.01,Weather View 32 v70,2013-05-19 19:25:00,
2013-05-19 15:35:00,82.0,69.9,29.90,NW,315,0.0,9.0,67,0.00,,,0.01,Weather View 32 v70,2013-05-19 19:35:00,
2013-05-19 15:45:00,83.0,70.4,29.89,NW,315,0.0,9.0,66,0.00,,,0.01,Weather View 32 v70,2013-05-19 19:45:00,
2013-05-19 15:50:00,83.0,69.1,29.88,NW,315,1.0,9.0,63,0.00,,,0.01,Weather View 32 v70,2013-05-19 19:50:00,
2013-05-19 15:55:00,83.0,68.6,29.88,North,360,0.0,9.0,62,0.00,,,0.01,Weather View 32 v70,2013-05-19 19:55:00,
2013-05-19 16:05:00,84.0,70.0,29.88,North,360,3.0,9.0,63,0.00,,,0.01,Weather View 32 v70,2013-05-19 20:05:00,
2013-05-19 16:15:00,83.0,68.6,29.88,North,360,3.0,8.0,62,0.00,,,0.01,Weather View 32 v70,2013-05-19 20:15:00,
2013-05-19 16:25:00,83.0,68.6,29.88,North,360,0.0,8.0,62,0.00,,,0.01,Weather View 32 v70,2013-05-19 20:25:00,
2013-05-19 16:30:00,84.0,70.9,29.87,North,360,4.0,8.0,65,0.00,,,0.01,Weather View 32 v70,2013-05-19 20:30:00,
2013-05-19 16:40:00,83.0,70.9,29.86,North,360,4.0,8.0,67,0.00,,,0.01,Weather View 32 v70,2013-05-19 20:40:00,
2013-05-19 16:50:00,82.0,70.8,29.86,North,360,0.0,7.0,69,0.00,,,0.01,Weather View 32 v70,2013-05-19 20:50:00,
2013-05-19 17:00:00,82.0,69.9,29.86,North,360,0.0,7.0,67,0.00,,,0.01,Weather View 32 v70,2013-05-19 21:00:00,
2013-05-19 17:10:00,81.0,70.2,29.87,North,360,0.0,8.0,70,0.00,,,0.01,Weather View 32 v70,2013-05-19 21:10:00,
2013-05-19 17:20:00,82.0,70.3,29.87,East,90,0.0,8.0,68,0.00,,,0.01,Weather View 32 v70,2013-05-19 21:20:00,
2013-05-19 17:30:00,82.0,69.9,29.88,East,90,0.0,8.0,67,0.00,,,0.01,Weather View 32 v70,2013-05-19 21:30:00,
2013-05-19 17:40:00,82.0,70.8,29.88,East,90,0.0,8.0,69,0.00,,,0.01,Weather View 32 v70,2013-05-19 21:40:00,
2013-05-19 17:50:00,81.0,70.7,29.88,East,90,4.0,8.0,71,0.00,,,0.01,Weather View 32 v70,2013-05-19 21:50:00,
2013-05-19 18:00:00,81.0,71.1,29.88,East,90,6.0,8.0,72,0.00,,,0.01,Weather View 32 v70,2013-05-19 22:00:00,
2013-05-19 18:10:00,81.0,71.9,29.88,East,90,5.0,7.0,74,0.00,,,0.01,Weather View 32 v70,2013-05-19 22:10:00,
2013-05-19 18:20:00,79.0,75.8,29.88,East,90,5.0,12.0,90,0.00,,,0.01,Weather View 32 v70,2013-05-19 22:20:00,
2013-05-19 18:30:00,78.0,76.4,29.89,East,90,8.0,12.0,95,0.00,,,0.01,Weather View 32 v70,2013-05-19 22:30:00,
2013-05-19 18:40:00,78.0,77.4,29.89,East,90,4.0,12.0,98,0.00,,,0.01,Weather View 32 v70,2013-05-19 22:40:00,
2013-05-19 18:50:00,77.0,77.0,29.89,East,90,6.0,12.0,100,0.00,,,0.01,Weather View 32 v70,2013-05-19 22:50:00,
2013-05-19 19:00:00,76.0,76.0,29.90,East,90,4.0,12.0,100,0.00,,,0.01,Weather View 32 v70,2013-05-19 23:00:00,
2013-05-19 19:10:00,76.0,76.0,29.90,East,90,0.0,12.0,100,0.00,,,0.01,Weather View 32 v70,2013-05-19 23:10:00,
2013-05-19 19:20:00,76.0,76.0,29.90,East,90,2.0,12.0,100,0.00,,,0.01,Weather View 32 v70,2013-05-19 23:20:00,
2013-05-19 19:30:00,75.0,75.0,29.91,East,90,3.0,12.0,100,0.00,,,0.01,Weather View 32 v70,2013-05-19 23:30:00,
2013-05-19 19:40:00,75.0,75.0,29.91,East,90,2.0,12.0,100,0.00,,,0.01,Weather View 32 v70,2013-05-19 23:40:00,
2013-05-19 19:50:00,75.0,75.0,29.91,East,90,3.0,12.0,100,0.00,,,0.01,Weather View 32 v70,2013-05-19 23:50:00,
2013-05-19 20:00:00,74.0,74.0,29.92,East,90,4.0,7.0,100,0.00,,,0.01,Weather View 32 v70,2013-05-20 00:00:00,
2013-05-19 20:10:00,74.0,74.0,29.92,East,90,3.0,7.0,100,0.00,,,0.01,Weather View 32 v70,2013-05-20 00:10:00,
2013-05-19 20:15:00,74.0,74.0,29.92,East,90,0.0,7.0,100,0.00,,,0.01,Weather View 32 v70,2013-05-20 00:15:00,
2013-05-19 20:35:00,73.0,73.0,29.92,East,90,1.0,7.0,100,0.00,,,0.01,Weather View 32 v70,2013-05-20 00:35:00,
2013-05-19 20:45:00,73.0,73.0,29.92,East,90,4.0,7.0,100,0.00,,,0.01,Weather View 32 v70,2013-05-20 00:45:00,
2013-05-19 20:52:00,73.0,73.0,29.93,East,90,1.0,7.0,100,0.00,,,0.01,Weather View 32 v70,2013-05-20 00:52:00,
2013-05-19 21:00:00,72.0,72.0,29.93,East,90,5.0,7.0,100,0.00,,,0.01,Weather View 32 v70,2013-05-20 01:00:00,
2013-05-19 21:10:00,72.0,72.0,29.93,East,90,0.0,6.0,100,0.00,,,0.01,Weather View 32 v70,2013-05-20 01:10:00,
2013-05-19 21:20:00,72.0,72.0,29.93,East,90,0.0,6.0,100,0.00,,,0.01,Weather View 32 v70,2013-05-20 01:20:00,
2013-05-19 21:30:00,71.0,71.0,29.94,East,90,0.0,6.0,100,0.00,,,0.01,Weather View 32 v70,2013-05-20 01:30:00,
2013-05-19 21:40:00,71.0,71.0,29.94,East,90,0.0,6.0,100,0.00,,,0.01,Weather View 32 v70,2013-05-20 01:40:00,
2013-05-19 21:50:00,71.0,71.0,29.94,East,90,0.0,5.0,100,0.00,,,0.01,Weather View 32 v70,2013-05-20 01:50:00,
2013-05-19 22:00:00,70.0,70.0,29.94,East,90,0.0,5.0,100,0.00,,,0.01,Weather View 32 v70,2013-05-20 02:00:00,
2013-05-19 22:10:00,70.0,70.0,29.95,East,90,0.0,4.0,100,0.00,,,0.01,Weather View 32 v70,2013-05-20 02:10:00,
2013-05-19 22:20:00,70.0,70.0,29.95,East,90,0.0,8.0,100,0.00,,,0.01,Weather View 32 v70,2013-05-20 02:20:00,
2013-05-19 22:30:00,70.0,70.0,29.95,East,90,0.0,8.0,100,0.00,,,0.01,Weather View 32 v70,2013-05-20 02:30:00,
2013-05-19 22:40:00,70.0,70.0,29.96,East,90,3.0,8.0,100,0.00,,,0.01,Weather View 32 v70,2013-05-20 02:40:00,
2013-05-19 22:50:00,70.0,70.0,29.96,East,90,6.0,9.0,100,0.00,,,0.01,Weather View 32 v70,2013-05-20 02:50:00,
2013-05-19 23:00:00,69.0,69.0,29.96,East,90,4.0,10.0,100,0.00,,,0.01,Weather View 32 v70,2013-05-20 03:00:00,
2013-05-19 23:10:00,69.0,69.0,29.96,East,90,4.0,10.0,100,0.00,,,0.01,Weather View 32 v70,2013-05-20 03:10:00,
2013-05-19 23:20:00,68.0,68.0,29.96,East,90,4.0,10.0,100,0.00,,,0.01,Weather View 32 v70,2013-05-20 03:20:00,
2013-05-19 23:30:00,68.0,68.0,29.96,East,90,0.0,10.0,100,0.00,,,0.01,Weather View 32 v70,2013-05-20 03:30:00,
2013-05-19 23:40:00,68.0,68.0,29.96,East,90,0.0,10.0,100,0.00,,,0.01,Weather View 32 v70,2013-05-20 03:40:00,
2013-05-19 23:45:00,68.0,68.0,29.96,East,90,1.0,10.0,100,0.00,,,0.01,Weather View 32 v70,2013-05-20 03:45:00,
2013-05-19 23:54:00,67.0,67.0,29.97,East,90,0.0,10.0,100,0.00,,,0.01,Weather View 32 v70,2013-05-20 03:54:00,